Location: Cassano d�Adda
(45.5333°N, 9.5167°E)
Time: 05:49:11
(UTC+00:00)

Cosmos 921 Rocket - Pass Details

Date: 08 December 2019
Orbit: 572 x 632 km, 75.8° (Epoch: 22 January)

Event Time Altitude Azimuth Distance (km) Brightness Sun altitude
Rises 17:44:17 0° 344° (NNW) 2,812 6.5 -21.2°
Reaches altitude 10° 17:46:30 10° 347° (NNW) 1,915 5.6 -21.6°
Enters shadow 17:49:43 47° 11° (N) 787 3.4 -22.1°
